This is the latest recevied weather packets stored in our database for station/object KI8L. If no packets are shown the sender has not sent any weather packets the latest 10 day(s).
| Time | Temp. | Humidity | Pressure | Rain* | Wind** | Luminosity | Snow |
|---|---|---|---|---|---|---|---|
| 1777365248 | 14.44° C | 99% | 1010 hPa | 0 mm | - | 0 W/m² | - |
| 1777364941 | 14.44° C | 99% | 1011 hPa | 0 mm | - | 0 W/m² | - |
| 1777364637 | 14.44° C | 99% | 1011.2 hPa | 0 mm | - | 0 W/m² | - |
| 1777364333 | 14.44° C | 99% | 1008.9 hPa | 0 mm | - | 0 W/m² | - |
| 1777364030 | 14.44° C | 99% | 1009.9 hPa | 0 mm | - | 0 W/m² | - |
| 1777363726 | 14.44° C | 99% | 1010.6 hPa | 0 mm | - | 0 W/m² | - |
| 1777363423 | 14.44° C | 99% | 1011 hPa | 0 mm | - | 0 W/m² | - |
| 1777363120 | 14.44° C | 99% | 1011.2 hPa | 1.27 mm | - | 0 W/m² | - |
| 1777362817 | 14.44° C | 99% | 1011.3 hPa | 1.27 mm | - | 0 W/m² | - |
| 1777362515 | 14.44° C | 99% | 1011.8 hPa | 0 mm | - | 0 W/m² | - |
| 1777362212 | 14.44° C | 99% | 1012.1 hPa | 0 mm | - | 0 W/m² | - |
| 1777361909 | 14.44° C | 99% | 1012.4 hPa | 0 mm | - | 0 W/m² | - |
| 1777361606 | 14.44° C | 99% | 1012.8 hPa | 0 mm | - | 0 W/m² | - |
| 1777361304 | 14.44° C | 99% | 1012.9 hPa | 1.78 mm | - | 0 W/m² | - |
| 1777361000 | 15° C | 99% | 1013.3 hPa | 1.78 mm | - | 0 W/m² | - |
| 1777360699 | 15° C | 99% | 1013.3 hPa | 3.05 mm | - | 0 W/m² | - |
| 1777360395 | 15° C | 99% | 1014 hPa | 4.32 mm | - | 0 W/m² | - |
| 1777360092 | 15° C | 99% | 1014.6 hPa | 4.83 mm | - | 0 W/m² | - |
| 1777359789 | 15° C | 99% | 1014.6 hPa | 6.1 mm | - | 0 W/m² | - |
| 1777359486 | 15° C | 99% | 1014.6 hPa | 7.87 mm | - | 0 W/m² | - |
| 1777359182 | 15° C | 99% | 1014.7 hPa | 6.1 mm | - | 0 W/m² | - |
| 1777358880 | 15° C | 99% | 1014.6 hPa | 7.11 mm | - | 0 W/m² | - |
| 1777358577 | 15° C | 99% | 1014.4 hPa | 6.1 mm | - | 0 W/m² | - |
| 1777358275 | 15° C | 99% | 1014.6 hPa | 4.83 mm | - | 0 W/m² | - |
| 1777357973 | 15.56° C | 98% | 1014.4 hPa | 6.1 mm | - | 0 W/m² | - |
* Rain latest hour (hover to see other rain measurements)
** Current wind speed in m/s (hover to see current wind gust speed)